Location: Hermaringen
(48.5952°N, 10.2585°E)
Time: 18:42:29
(UTC+00:00)

Altair - Pass Details

Date: 23 February 2026
Orbit: 1502 x 1682 km, 47.2° (Epoch: 10 March)

Event Time Altitude Azimuth Distance (km) Brightness Sun altitude
Rises 04:59:34 0° 263° (W) 4,638 - -12.8°
Reaches altitude 10° 05:02:33 10° 263° (W) 3,665 - -12.3°
Exits shadow 05:03:35 14° 262° (W) 3,339 8.6 -12.1°
Maximum altitude 05:11:48 83° 177° (S) 1,549 7.5 -10.7°
Drops below altitude 10° 05:21:21 10° 91° (E) 3,778 11.2 -9.2°
Sets 05:24:29 0° 91° (E) 4,787 12.5 -8.6°
